SL-8 R/B, 7350

Orbit data source: Space-Track

SL-8 R/B, 7350 is space debris in LEO originally from a launch on Thu, 27 Jun 1974 UTC launched from the Plesetsk Missile And Space Complex (PKMTR). Debris objects in space refer to the collection of defunct objects orbiting the Earth. Examples of debris include non-operational satellites, rocket bodies, and fragments generated from explosions, collisions, or faulty payload assembly.

Loading next visibility...
Identifier
7350, 1974-048B
Orbit
LEO
Country
Flag of CISCIS
Related business
Manufacturer
Omsk Av. Zav.
Mission
Spacecraft
Bus & Motor
S3, Unknown motor
Mass
1,434 kg wet, 1,434 kg dry
Launch date (UTC)
1974-06-27 (52 years ago)
Launch vehicle
Unknown
Launch site
Plesetsk Missile And Space Complex (PKMTR)
Object type
Payload
Rocket body
Debris
Shape & HBR
Unknown
Radar Cross Section
Large (>1 m²)

Expand to show TLE details & history
Last TLE update: 2 days ago

TLE from 2 days ago
0 SL-8 R/B
1  7350U 74048B   26171.36662183  .00000015  00000-0 -22475-6 0  9993
2  7350  82.9448 115.4317 0018257  88.4701  30.1454 13.78028876612719
Epoch: 2026-06-20T08:47Z
TLE epoch observation values (Epoch: 2026-06-20T08:47:56.126Z)
Latitude
60.59012°
Longitude
-117.75021°
Altitude
969.619 km
Speed
7.378 km/s
True Right ascension
18h 51m 15s
True Declination
60° 26' 49"
Sunlit
Object was in daylight at epoch
Visualization orbit readout
Latitude
Unknown
Longitude
Unknown
Altitude
Unknown
Speed
Unknown
Apparent Right ascension
Unknown
Apparent Declination
Unknown
Sunlit
N/A
Visualization observer readout
Local Sidereal Time
23:08:00
Azimuth
Unknown
Elevation
Unknown
Doppler factor
Unknown
Orbital elements
Apogee altitude
981.443 km
Perigee altitude
954.619 km
Semi-major axis
7,346.168 km
Eccentricity
0.00183
Inclination
82.9448°
RAAN
115.4317°
Arg. of periapsis
88.4701°
True anomaly
30.25067°
Mean anomaly
30.1454°
Eccentric anomaly
30.19802°
Mean motion
3.44708 °/min
Orbital period
104.44 mins
BSTAR
-2.2475e-7
Loading maneuver chart data...
Computing Atmospheric mass density...
Loading historical data...
Loading historical data...
Loading historical data...
Loading historical data...
Loading historical data...
Loading historical data...
Loading historical data...
Other satellites on launch #48 in the year 1974 (1974-06-27 UTC)

Documentation

Showing up to 5 results
|